This demonstration page uses our WeatherBlox Daily Observations layout. Learn more.

Left ArrowRight Arrow

Hourly Observations for November 7, 2018

Temp ( °F °C ) Dew Point ( °F °C ) Humidity (%) Winds ( mph kmh ) Pressure ( in mb ) Visibility ( mi km ) Precip ( " mm )
12:53 am 00:53 Mostly Cloudy 18 -7.8 13 -10.6 81 81 W 5 7 30.41 1030 10 16 N/A
1:53 am 01:53 Cloudy 19 -7.2 13 -10.6 77 77 W 8 13 30.40 1030 10 16 N/A
2:53 am 02:53 Cloudy 18 -7.8 14 -10 84 84 N N/A 30.40 1029 10 16 N/A
3:53 am 03:53 Cloudy 19 -7.2 14 -10 81 81 WNW 8 13 30.40 1030 10 16 N/A
4:53 am 04:53 Cloudy 18 -7.8 14 -10 84 84 NW 6 9 30.42 1030 10 16 N/A
5:53 am 05:53 Cloudy 18 -7.8 13 -10.6 81 81 NNW 6 9 30.43 1030 10 16 N/A
6:53 am 06:53 Cloudy 18 -7.8 13 -10.6 81 81 N N/A 30.43 1031 10 16 N/A
7:23 am 07:23 Cloudy with Light Snow 18 -7.8 14 -10 84 84 N N/A 30.50 1033 2 3 N/A
7:33 am 07:33 Cloudy with Light Snow 18 -7.8 14 -10 84 84 WNW 3 6 30.50 1033 2 3 N/A
7:43 am 07:43 Cloudy with Light Snow 18 -7.8 15 -9.4 88 88 WNW 6 9 30.50 1033 1 2 N/A
7:53 am 07:53 Cloudy with Light Snow 18 -7.8 15 -9.4 88 88 WNW 7 11 30.44 1031 1 2 N/A
8:09 am 08:09 Cloudy with Light Snow 18 -7.8 15 -9.4 88 88 NW 5 7 30.50 1033 1 2 0.01 0.25
8:16 am 08:16 Cloudy with Light Snow 18 -8 14 -10 86 86 NW 7 11 30.50 1033 2 3 N/A
8:21 am 08:21 Cloudy with Light Snow 18 -7.8 15 -9.4 88 88 WNW 8 13 30.53 1034 2 3 0.01 0.25
8:33 am 08:33 Cloudy with Light Snow 18 -7.8 14 -10 84 84 NW 8 13 30.53 1034 3 5 0.01 0.25
8:41 am 08:41 Cloudy with Light Snow 18 -7.8 14 -10 84 84 NW 8 13 30.53 1034 2 3 0.01 0.25
8:53 am 08:53 Cloudy with Light Snow 18 -7.8 14 -10 84 84 NW 8 13 30.45 1031 1 2 0.01 0.25
9:07 am 09:07 Cloudy with Light Snow 18 -7.8 14 -10 84 84 NW 7 11 30.53 1034 2 2 N/A
9:38 am 09:38 Cloudy with Light Snow 19 -7 14 -10 79 79 NW 8 13 30.50 1033 2 3 N/A
9:53 am 09:53 Cloudy with Light Snow 19 -7.2 14 -10 81 81 NW 10 17 30.45 1031 3 5 0.01 0.25
9:57 am 09:57 Cloudy with Light Snow 19 -7.2 14 -10 81 81 NW 13 20 30.50 1033 2 3 N/A
10:33 am 10:33 Cloudy with Light Snow 19 -7.2 13 -10.6 77 77 NNW 10 17 30.50 1033 3 5 N/A
10:53 am 10:53 Cloudy with Light Snow 19 -7.2 14 -10 81 81 WNW 8 13 30.46 1031 5 8 N/A
11:02 am 11:02 Cloudy with Light Snow 19 -7 12 -11 73 73 WNW 8 13 30.50 1033 7 11 N/A
11:53 am 11:53 Mostly Cloudy 20 -6.7 12 -11.1 71 71 NW 10 17 30.45 1031 10 16 N/A
12:53 pm 12:53 Cloudy 19 -7.2 11 -11.7 71 71 WNW 13 20 30.45 1031 10 16 N/A
1:53 pm 13:53 Cloudy 18 -7.8 11 -11.7 74 74 NW 10 17 30.46 1032 10 16 N/A
2:53 pm 14:53 Cloudy 19 -7.2 11 -11.7 71 71 WNW 10 17 30.47 1032 10 16 N/A
3:53 pm 15:53 Cloudy 19 -7.2 11 -11.7 71 71 WNW 6 9 30.48 1032 10 16 N/A
4:53 pm 16:53 Cloudy 19 -7.2 11 -11.7 71 71 NW 6 9 30.48 1032 10 16 N/A
5:53 pm 17:53 Cloudy 18 -7.8 12 -11.1 77 77 NW 6 9 30.48 1032 10 16 N/A
6:53 pm 18:53 Cloudy 18 -7.8 12 -11.1 77 77 NNW 6 9 30.49 1032 10 16 N/A
7:53 pm 19:53 Cloudy 18 -7.8 11 -11.7 74 74 WNW 3 6 30.49 1033 10 16 N/A
8:53 pm 20:53 Cloudy 18 -7.8 11 -11.7 74 74 W 5 7 30.50 1033 10 16 N/A
9:53 pm 21:53 Cloudy 16 -8.9 10 -12.2 77 77 WNW 5 7 30.49 1032 10 16 N/A
10:53 pm 22:53 Cloudy 16 -8.9 13 -10.6 88 88 SW 5 7 30.48 1032 10 16 N/A
11:53 pm 23:53 Partly Cloudy 13 -10.6 11 -11.7 92 92 SW 7 11 30.46 1032 10 16 N/A

Powered by AerisWeather